This demonstration page uses our WeatherBlox Daily Observations layout. Learn more.

Left ArrowRight Arrow

Hourly Observations for December 19, 2019

Temp ( °F °C ) Dew Point ( °F °C ) Humidity (%) Winds ( mph kmh ) Pressure ( in mb ) Visibility ( mi km ) Precip ( " mm )
12:51 am 00:51 Clear 36 2.2 16 -8.9 44 44 ESE 7 11 30.11 1020 10 16 N/A
1:51 am 01:51 Clear 36 2.2 16 -8.9 44 44 E 9 15 30.09 1019 10 16 N/A
2:51 am 02:51 Clear 36 2.2 15 -9.4 42 42 ESE 9 15 30.08 1019 10 16 N/A
3:51 am 03:51 Clear 36 2.2 14 -10 40 40 ESE 9 15 30.08 1019 10 16 N/A
4:51 am 04:51 Clear 33 0.6 16 -8.9 49 49 E 7 11 30.09 1019 10 16 N/A
5:51 am 05:51 Clear 34 1.1 16 -8.9 48 48 ESE 8 13 30.10 1019 10 16 N/A
6:51 am 06:51 Clear 34 1.1 16 -8.9 48 48 E 8 13 30.11 1020 10 16 N/A
7:51 am 07:51 Sunny 36 2.2 17 -8.3 46 46 ESE 8 13 30.12 1020 10 16 N/A
8:51 am 08:51 Sunny 38 3.3 16 -8.9 41 41 ESE 8 13 30.13 1020 10 16 N/A
9:51 am 09:51 Sunny 43 6.1 18 -7.8 37 37 SE 9 15 30.14 1021 10 16 N/A
10:51 am 10:51 Sunny 46 7.8 17 -8.3 31 31 SE 9 15 30.12 1020 10 16 N/A
11:51 am 11:51 Sunny 49 9.4 18 -7.8 29 29 SE 7 11 30.08 1019 10 16 N/A
12:51 pm 12:51 Sunny 51 10.6 19 -7.2 28 28 ESE 7 11 30.04 1017 10 16 N/A
1:51 pm 13:51 Sunny 52 11.1 19 -7.2 27 27 S 3 6 30.02 1017 10 16 N/A
2:51 pm 14:51 Sunny 53 11.7 20 -6.7 27 27 N N/A 30.01 1016 10 16 N/A
3:51 pm 15:51 Sunny 54 12.2 20 -6.7 26 26 VRB 3 6 30.02 1017 10 16 N/A
4:51 pm 16:51 Sunny 53 11.7 21 -6.1 28 28 N N/A 30.04 1017 10 16 N/A
5:51 pm 17:51 Clear 46 7.8 24 -4.4 42 42 WNW 6 9 30.08 1019 10 16 N/A
6:51 pm 18:51 Clear 43 6.1 25 -3.9 49 49 N 7 11 30.10 1019 10 16 N/A
7:51 pm 19:51 Clear 40 4.4 25 -3.9 55 55 NE 3 6 30.13 1020 10 16 N/A
8:51 pm 20:51 Clear 37 2.8 26 -3.3 65 65 NNW 6 9 30.15 1021 10 16 N/A
9:51 pm 21:51 Clear 41 5 24 -4.4 51 51 ENE 5 7 30.16 1021 10 16 N/A
10:51 pm 22:51 Clear 35 1.7 25 -3.9 67 67 N 3 6 30.19 1022 10 16 N/A
11:51 pm 23:51 Clear 34 1.1 26 -3.3 73 73 SE 7 11 30.19 1022 10 16 N/A

Powered by AerisWeather